[[{"header":{"parameterUnit":"m.s-1","parameterCategory":2,"la1":30.2991,"la2":30.254,"lo1":-89.0895,"lo2":-89.0444,"dy":0.0017,"dx":0.0017,"nx":28,"ny":28,"refTime":"2024-12-18T09:00:00:Z","depth":"0","parameterNumber":2,"parameterNumberName":"U-component_of_CURRENTS"},"data":[0,0,0,0,0,0,0,0,0,0,0,0,0,0,0,0,0,0,0,0,0,0,0,0,0,0,0,0,0,0,0,0,0,0,0,0,0,0,0,0,0,0,0,0,0,0,0,0,0,0,0,0,0,0,0,0,0,0,0.2482,0.2483,0,0.255,0.255,0.2551,0.2568,0.2568,0.2568,0.2568,0.2587,0.2588,0.2589,0,0,0,0,0,0,0,0,0,0,0,0,0,0.2382,0.2383,0.2482,0.2483,0.2484,0.255,0.255,0.2551,0.2568,0.2568,0.2568,0.2567,0.2587,0.2588,0.2589,0,0,0,0,0,0,0,0,0,0,0,0,0,0.2432,0.2383,0.2482,0.2503,0.2505,0.255,0.255,0.2551,0.2568,0.2568,0.2568,0.2567,0.2587,0.2588,0.2589,0.2601,0,0,0.2592,0.2592,0,0,0,0,0,0,0,0,0.2429,0.2435,0.2499,0.2501,0.2505,0.2553,0.2522,0.2566,0.2568,0.2542,0.2568,0.2567,0.2573,0.2575,0.2585,0.2602,0.2602,0.2592,0.2593,0.2593,0.2593,0,0,0,0,0,0,0,0.2426,0.2433,0.2506,0.25,0.2504,0.2514,0.252,0.2531,0.2555,0.2544,0.2546,0.2558,0.2574,0.2584,0.2586,0.2603,0.2592,0.2593,0.2594,0.2594,0.2668,0.2669,0,0,0,0,0,0,0.2423,0.243,0.2504,0.2509,0.2469,0.2516,0.2523,0.2535,0.2556,0.256,0.2558,0.2558,0.2583,0.2585,0.2587,0.2639,0.2593,0.2594,0.2595,0.2666,0.2668,0.2669,0,0,0,0,0,0,0.242,0.2429,0.2501,0.2473,0.2483,0.2518,0.2532,0.2537,0.2548,0.2568,0.257,0.2565,0.2583,0.2585,0.2613,0.2638,0.2595,0.2595,0.2665,0.2667,0.2669,0.2719,0,0,0,0,0,0,0.2417,0.2427,0.2436,0.2472,0.2485,0.2534,0.2532,0.2538,0.2557,0.2559,0.2574,0.2576,0.2583,0.2612,0.2614,0.2639,0.2596,0.2663,0.2666,0.2668,0.2715,0.2722,0.2728,0,0,0,0,0,0.2413,0.2429,0.2436,0.2445,0.2495,0.2535,0.2542,0.2564,0.2558,0.2571,0.2587,0.2576,0.2629,0.2614,0.2616,0.2642,0.2662,0.2665,0.2668,0.2713,0.2721,0.2728,0,0,0,0,0,0,0.2392,0.2434,0.2441,0.2469,0.2502,0.2539,0.2557,0.2564,0.2586,0.2587,0.2593,0.2597,0.2632,0.2629,0.2612,0.2671,0.2643,0.2647,0.2676,0.2684,0.269,0.2709,0.2597,0,0,0,0,0,0.2391,0.2412,0.2452,0.2475,0.2492,0.2521,0.2539,0.2555,0.2581,0.259,0.2601,0.2618,0.2647,0.2658,0.2677,0.2706,0.2733,0.2724,0.2731,0.2736,0.2754,0.2811,0.2825,0.2679,0.2679,0.2679,0,0,0.2389,0.2415,0.2427,0.2472,0.2498,0.2536,0.2531,0.2564,0.2598,0.2588,0.2629,0.2639,0.2659,0.2701,0.2715,0.2701,0.2795,0.274,0.2744,0.276,0.2816,0.283,0.2843,0.2681,0.2681,0.268,0,0,0.2402,0.242,0.2445,0.2477,0.2522,0.2545,0.2554,0.2592,0.2611,0.2649,0.2659,0.2689,0.2715,0.2748,0.2765,0.2816,0.2826,0.2813,0.2862,0.2917,0.293,0.2942,0.3009,0.3026,0.2816,0.2816,0.2816,0,0.2397,0.2437,0.2458,0.2497,0.2529,0.255,0.2588,0.2618,0.2659,0.2687,0.2668,0.2741,0.2745,0.2821,0.2839,0.2832,0.2868,0.283,0.2927,0.2938,0.2949,0.3016,0.3034,0.2819,0.2819,0.2818,0.2818,0,0.2433,0.247,0.249,0.2545,0.2579,0.2617,0.2662,0.2694,0.2709,0.2741,0.2805,0.2821,0.287,0.2871,0.287,0.2954,0.2958,0.2928,0.2908,0.2967,0.3033,0.3051,0.2823,0.2822,0.2821,0.2821,0,0,0.2411,0.2498,0.2504,0.2542,0.2609,0.2641,0.2703,0.277,0.2819,0.285,0.2919,0.2961,0.2969,0.299,0.2994,0.3036,0.3138,0.3016,0.3018,0.3086,0.3281,0.3293,0.3314,0.3124,0.3127,0.313,0.3302,0,0.2433,0.251,0.2547,0.262,0.2666,0.2712,0.2769,0.2832,0.2878,0.2948,0.2987,0.3045,0.3017,0.304,0.3085,0.3124,0.3186,0.3095,0.3212,0.3217,0.3221,0.3335,0.318,0.3321,0.332,0.3323,0.3325,0,0.2454,0.2508,0.2579,0.2671,0.2694,0.2736,0.2833,0.2889,0.2994,0.3031,0.3104,0.3134,0.3223,0.3169,0.3298,0.3243,0.3277,0.3298,0.3304,0.3312,0.3262,0.3259,0.3354,0.3284,0.3353,0.3351,0.3349,0,0.2433,0.2528,0.2583,0.2616,0.272,0.2758,0.2813,0.2913,0.2974,0.3091,0.3148,0.3247,0.3305,0.3364,0.3421,0.3367,0.3558,0.3484,0.3538,0.3539,0.343,0.3417,0.3472,0.3587,0.3587,0.3586,0.3586,0,0.2445,0.2493,0.2576,0.2613,0.2675,0.2752,0.283,0.2901,0.3017,0.3111,0.3187,0.3285,0.3354,0.3464,0.3489,0.3601,0.3625,0.3592,0.3599,0.3445,0.3432,0.3382,0.3342,0.3593,0.3591,0.359,0.3589,0,0.2417,0.2477,0.2542,0.2641,0.2668,0.2711,0.2823,0.2889,0.3003,0.3132,0.3176,0.3342,0.35,0.3583,0.3705,0.3699,0.3695,0.3811,0.364,0.3625,0.3575,0.3543,0.3509,0.3398,0.3898,0.3899,0.3901,0,0.2412,0.2443,0.2532,0.2567,0.2609,0.2682,0.2735,0.2857,0.2933,0.3173,0.3235,0.3443,0.3577,0.3788,0.3822,0.3916,0.3784,0.3818,0.368,0.3602,0.3571,0.3415,0.331,0.356,0.3558,0.3557,0.3556,0,0.2396,0.2419,0.2472,0.2536,0.2587,0.2642,0.2732,0.2789,0.2959,0.3074,0.3261,0.3397,0.364,0.3689,0.3839,0.386,0.3635,0.3796,0.3744,0.3363,0.3165,0.3049,0.3432,0.3544,0.3545,0.3546,0.3547,0.3547,0.2368,0.2385,0.2446,0.25,0.2554,0.2598,0.2615,0.2728,0.2832,0.2996,0.3182,0.3325,0.3501,0.3692,0.3709,0.3651,0.3607,0.3524,0.3514,0.3379,0.32,0.3588,0.3684,0.3686,0.3688,0.3689,0.3691,0,0.2327,0.2362,0.2415,0.2464,0.2487,0.2534,0.2606,0.2609,0.2685,0.2874,0.3002,0.3164,0.327,0.3399,0.3457,0.3363,0.3159,0.3286,0.2998,0.2922,0.3303,0.3215,0.3177,0.3177,0.3177,0.3177,0.3177,0.3177,0.2313,0.2336,0.2363,0.238,0.2409,0.2382,0.2394,0.2419,0.2506,0.2611,0.2699,0.2829,0.3124,0.3318,0.3273,0.3177,0.2911,0.2801,0.2805,0.3057,0.3076,0.3093,0.3001,0.2918,0.2918,0.2247,0.2242,0.2239]},{"header":{"parameterUnit":"m.s-1","parameterCategory":2,"la1":30.2991,"la2":30.254,"lo1":-89.0895,"lo2":-89.0444,"dy":0.0017,"dx":0.0017,"nx":28,"ny":28,"refTime":"2024-12-18T09:00:00:Z","depth":"0","parameterNumber":3,"parameterNumberName":"V-component_of_CURRENTS"},"data":[0,0,0,0,0,0,0,0,0,0,0,0,0,0,0,0,0,0,0,0,0,0,0,0,0,0,0,0,0,0,0,0,0,0,0,0,0,0,0,0,0,0,0,0,0,0,0,0,0,0,0,0,0,0,0,0,0,0,-0.0563,-0.0563,0,-0.0645,-0.0646,-0.0647,-0.0721,-0.0722,-0.0723,-0.0724,-0.0853,-0.0856,-0.0858,0,0,0,0,0,0,0,0,0,0,0,0,0,-0.0547,-0.0546,-0.0563,-0.0563,-0.0564,-0.0644,-0.0646,-0.0647,-0.0721,-0.0722,-0.0723,-0.0724,-0.0852,-0.0855,-0.0859,0,0,0,0,0,0,0,0,0,0,0,0,0,-0.0584,-0.0546,-0.0562,-0.061,-0.0615,-0.0644,-0.0646,-0.0647,-0.0721,-0.0722,-0.0723,-0.0725,-0.0851,-0.0855,-0.0859,-0.086,0,0,-0.0872,-0.0873,0,0,0,0,0,0,0,0,-0.0582,-0.0585,-0.0602,-0.0607,-0.0613,-0.0673,-0.0688,-0.072,-0.0721,-0.0682,-0.0724,-0.0725,-0.0796,-0.0804,-0.0818,-0.0866,-0.0872,-0.0872,-0.0874,-0.0876,-0.0877,0,0,0,0,0,0,0,-0.0579,-0.0582,-0.0596,-0.0603,-0.0609,-0.0654,-0.066,-0.0694,-0.0733,-0.0686,-0.0691,-0.0698,-0.0799,-0.0814,-0.0822,-0.0874,-0.0872,-0.0875,-0.0878,-0.0879,-0.0951,-0.0951,0,0,0,0,0,0,-0.0561,-0.0579,-0.0594,-0.0599,-0.0599,-0.0653,-0.066,-0.0653,-0.0732,-0.0744,-0.0697,-0.0701,-0.0806,-0.0817,-0.0827,-0.0849,-0.0876,-0.088,-0.0882,-0.0952,-0.0951,-0.0951,0,0,0,0,0,0,-0.056,-0.0561,-0.059,-0.0591,-0.0598,-0.0651,-0.0644,-0.0654,-0.0669,-0.0739,-0.0753,-0.0701,-0.0808,-0.0821,-0.0852,-0.0855,-0.0882,-0.0885,-0.0953,-0.0952,-0.0951,-0.0885,0,0,0,0,0,0,-0.0559,-0.056,-0.0552,-0.0589,-0.0597,-0.0602,-0.0643,-0.0655,-0.0671,-0.0678,-0.0747,-0.0761,-0.081,-0.0845,-0.0856,-0.0861,-0.0889,-0.0953,-0.0952,-0.0951,-0.0887,-0.0882,-0.0877,0,0,0,0,0,-0.0558,-0.0536,-0.0551,-0.0553,-0.0583,-0.0601,-0.0609,-0.0653,-0.067,-0.0672,-0.0716,-0.0759,-0.0847,-0.0848,-0.086,-0.0867,-0.0954,-0.0952,-0.0951,-0.089,-0.0883,-0.0877,0,0,0,0,0,0,-0.0524,-0.0542,-0.056,-0.0544,-0.057,-0.0614,-0.0617,-0.0642,-0.0677,-0.0684,-0.0748,-0.0764,-0.0794,-0.0832,-0.0831,-0.0883,-0.0909,-0.091,-0.0858,-0.0852,-0.0846,-0.0827,-0.0892,0,0,0,0,0,-0.0511,-0.05,-0.0531,-0.0519,-0.0527,-0.0569,-0.0582,-0.0609,-0.0644,-0.0661,-0.0706,-0.0755,-0.0797,-0.0824,-0.0864,-0.0888,-0.0912,-0.0901,-0.0895,-0.089,-0.0883,-0.0922,-0.092,-0.0947,-0.0947,-0.0947,0,0,-0.0493,-0.0503,-0.0496,-0.0512,-0.0534,-0.0534,-0.058,-0.0591,-0.0597,-0.0668,-0.0685,-0.0734,-0.0797,-0.0828,-0.0846,-0.0862,-0.089,-0.0889,-0.0884,-0.0879,-0.0921,-0.0918,-0.0916,-0.0946,-0.0946,-0.0946,0,0,-0.0451,-0.046,-0.044,-0.0455,-0.0481,-0.0506,-0.0503,-0.054,-0.0563,-0.0583,-0.0639,-0.0684,-0.074,-0.0793,-0.0826,-0.0811,-0.0856,-0.0825,-0.0791,-0.0829,-0.0827,-0.0826,-0.083,-0.083,-0.0828,-0.0828,-0.0828,0,-0.0425,-0.0408,-0.0438,-0.0428,-0.0433,-0.0484,-0.0467,-0.0496,-0.054,-0.0555,-0.0579,-0.0666,-0.0725,-0.0771,-0.0775,-0.08,-0.0815,-0.0812,-0.0822,-0.0822,-0.0821,-0.0826,-0.0827,-0.0825,-0.0825,-0.0825,-0.0826,0,-0.0374,-0.0365,-0.0353,-0.0354,-0.0365,-0.0358,-0.0398,-0.0411,-0.0443,-0.048,-0.0523,-0.06,-0.0654,-0.0686,-0.0732,-0.0763,-0.0768,-0.0806,-0.0837,-0.0815,-0.0821,-0.0822,-0.082,-0.0821,-0.0822,-0.0823,0,0,-0.0291,-0.031,-0.0303,-0.0301,-0.0324,-0.0325,-0.033,-0.0352,-0.035,-0.0414,-0.0419,-0.0517,-0.0563,-0.0602,-0.0669,-0.0715,-0.0732,-0.0756,-0.076,-0.0755,-0.0786,-0.074,-0.0738,-0.0771,-0.0772,-0.0772,-0.0782,0,-0.0236,-0.0204,-0.0228,-0.0199,-0.0189,-0.0233,-0.0228,-0.0261,-0.0298,-0.0316,-0.0412,-0.0445,-0.053,-0.0553,-0.0614,-0.0697,-0.0736,-0.0723,-0.0813,-0.0815,-0.0774,-0.0739,-0.0711,-0.0714,-0.0784,-0.0785,-0.0785,0,-0.0173,-0.0163,-0.0123,-0.0129,-0.0124,-0.0113,-0.0115,-0.0121,-0.0171,-0.0203,-0.0265,-0.033,-0.0408,-0.048,-0.061,-0.0594,-0.0682,-0.0752,-0.0755,-0.0737,-0.0772,-0.0754,-0.0715,-0.0889,-0.0788,-0.0788,-0.0788,0,-0.0104,-0.0088,-0.0054,-0.0053,-0.0062,-0.0049,-0.0053,-0.0084,-0.0072,-0.013,-0.0122,-0.0235,-0.0263,-0.0401,-0.0538,-0.0577,-0.0659,-0.0735,-0.0773,-0.077,-0.0776,-0.0772,-0.0914,-0.0825,-0.0825,-0.0825,-0.0825,0,-0.0037,-0.0011,-0.0017,0.0002,0.0053,0.0017,0.0066,0.004,0.0033,0.0081,-0.0057,-0.0032,-0.0245,-0.0316,-0.0479,-0.0598,-0.0613,-0.0748,-0.0769,-0.0748,-0.0742,-0.0918,-0.1035,-0.0825,-0.0825,-0.0825,-0.0825,0,0.0028,0.0023,0.0062,0.0073,0.0085,0.0119,0.0155,0.0193,0.0164,0.023,0.0224,0.0134,0.0052,-0.014,-0.033,-0.0486,-0.072,-0.0677,-0.0612,-0.0626,-0.0841,-0.0953,-0.1104,-0.1172,-0.0732,-0.0731,-0.073,0,0.0061,0.0091,0.0128,0.0168,0.0179,0.0226,0.0274,0.0261,0.032,0.0356,0.0411,0.0349,0.0354,0.0097,-0.0187,-0.0429,-0.0642,-0.059,-0.068,-0.0827,-0.0971,-0.1058,-0.1112,-0.0659,-0.0657,-0.0656,-0.0655,0,0.013,0.0147,0.0182,0.0269,0.0326,0.0395,0.0468,0.0542,0.0572,0.065,0.0757,0.0767,0.0532,0.0314,-0.0036,-0.0243,-0.0705,-0.0573,-0.0766,-0.0945,-0.1013,-0.1094,-0.0659,-0.0645,-0.0646,-0.0647,-0.0647,-0.0648,0.019,0.0232,0.0293,0.0379,0.0453,0.0575,0.0666,0.0776,0.0921,0.1075,0.1054,0.1113,0.0733,0.0268,-0.0024,-0.0572,-0.0615,-0.0768,-0.0894,-0.0968,-0.1035,-0.0543,-0.0531,-0.0532,-0.0532,-0.0532,-0.0533,0,0.0268,0.0321,0.0404,0.0513,0.0626,0.0644,0.081,0.0928,0.115,0.1287,0.1405,0.1261,0.0808,0.0282,-0.0437,-0.0826,-0.1006,-0.1065,-0.1225,-0.1267,-0.0861,-0.086,-0.0869,-0.0869,-0.0869,-0.0869,-0.0869,-0.0868,0.0311,0.041,0.0455,0.0655,0.0743,0.0911,0.1023,0.1207,0.1339,0.1536,0.158,0.1569,0.1165,-0.0107,-0.0985,-0.1203,-0.1514,-0.1566,-0.1716,-0.1492,-0.1475,-0.146,-0.1486,-0.1627,-0.1628,-0.2062,-0.2067,-0.207]}],[{"header":{"parameterUnit":"m.s-1","parameterCategory":2,"la1":30.2991,"la2":30.254,"lo1":-89.0895,"lo2":-89.0444,"dy":0.0017,"dx":0.0017,"nx":28,"ny":28,"refTime":"2024-12-18T09:00:00:Z","depth":"2","parameterNumber":2,"parameterNumberName":"U-component_of_CURRENTS"},"data":[0,0,0,0,0,0,0,0,0,0,0,0,0,0,0,0,0,0,0,0,0,0,0,0,0,0,0,0,0,0,0,0,0,0,0,0,0,0,0,0,0,0,0,0,0,0,0,0,0,0,0,0,0,0,0,0,0,0,0.2265,0.2266,0,0.2317,0.2318,0.2318,0.2355,0.2356,0.2357,0.2357,0.2408,0.2409,0.241,0,0,0,0,0,0,0,0,0,0,0,0,0,0.2171,0.2173,0.2265,0.2266,0.2267,0.2317,0.2318,0.2318,0.2355,0.2356,0.2357,0.2358,0.2408,0.2409,0.241,0,0,0,0,0,0,0,0,0,0,0,0,0,0.2213,0.2173,0.2265,0.2294,0.2298,0.2317,0.2318,0.2318,0.2355,0.2356,0.2357,0.2358,0.2408,0.2409,0.241,0.2397,0,0,0.2413,0.2414,0,0,0,0,0,0,0,0,0.221,0.2216,0.2289,0.2292,0.2296,0.2334,0.2304,0.2346,0.2355,0.2329,0.2357,0.2358,0.2385,0.2388,0.239,0.2399,0.2401,0.2413,0.2414,0.2414,0.2415,0,0,0,0,0,0,0,0.2208,0.2214,0.2282,0.229,0.2295,0.2297,0.2303,0.2311,0.2348,0.2331,0.2335,0.2347,0.2387,0.2389,0.2392,0.2402,0.2413,0.2414,0.2415,0.2415,0.2503,0.2504,0,0,0,0,0,0,0.221,0.2211,0.228,0.2284,0.2259,0.2298,0.2305,0.2318,0.2348,0.2355,0.2346,0.2349,0.2387,0.239,0.2394,0.2462,0.2414,0.2415,0.2416,0.2501,0.2503,0.2505,0,0,0,0,0,0,0.2207,0.2215,0.2278,0.2251,0.226,0.2299,0.2312,0.2318,0.2338,0.236,0.2366,0.2363,0.2388,0.2392,0.2428,0.2461,0.2416,0.2417,0.2499,0.2502,0.2504,0.2546,0,0,0,0,0,0,0.2204,0.2214,0.2224,0.2252,0.2262,0.2304,0.2312,0.2319,0.2345,0.2349,0.2375,0.238,0.2389,0.2426,0.2429,0.2462,0.2418,0.2497,0.25,0.2503,0.2543,0.255,0.2556,0,0,0,0,0,0.2201,0.222,0.2224,0.2233,0.2274,0.2305,0.231,0.2338,0.2345,0.2357,0.2383,0.238,0.2449,0.2428,0.2431,0.2465,0.2496,0.2499,0.2503,0.254,0.2548,0.2556,0,0,0,0,0,0,0.2189,0.2226,0.2232,0.2262,0.2285,0.2313,0.2332,0.2343,0.237,0.238,0.2393,0.24,0.2447,0.2448,0.2426,0.2502,0.2475,0.2479,0.2502,0.251,0.2516,0.2558,0.2419,0,0,0,0,0,0.2188,0.2209,0.2241,0.2263,0.2279,0.2302,0.2318,0.2337,0.2365,0.2378,0.2398,0.2426,0.246,0.2479,0.2501,0.2533,0.2556,0.2561,0.2568,0.2573,0.2611,0.266,0.2674,0.2517,0.2517,0.2517,0,0,0.2191,0.2213,0.2226,0.2261,0.2282,0.2315,0.2315,0.2348,0.2383,0.2378,0.2431,0.2446,0.2474,0.252,0.2542,0.2528,0.2628,0.2578,0.2582,0.2618,0.2665,0.2681,0.2694,0.252,0.2519,0.2519,0,0,0.2204,0.2226,0.2246,0.2271,0.2307,0.2329,0.2341,0.2376,0.2402,0.2443,0.2461,0.2507,0.2535,0.258,0.2602,0.2659,0.2659,0.2655,0.2724,0.277,0.2784,0.2796,0.2835,0.2851,0.2659,0.266,0.266,0,0.2201,0.224,0.2256,0.2284,0.2317,0.2339,0.2376,0.2405,0.2448,0.2485,0.2469,0.2561,0.2576,0.2664,0.2692,0.2678,0.2696,0.2686,0.2779,0.2792,0.2804,0.2841,0.2858,0.2662,0.2662,0.2661,0.2661,0,0.223,0.2267,0.2285,0.2332,0.2362,0.2401,0.2446,0.2486,0.2513,0.2547,0.2629,0.2653,0.2716,0.2722,0.2728,0.2826,0.2809,0.2777,0.2757,0.2822,0.2857,0.2874,0.2666,0.2665,0.2664,0.2663,0,0,0.2212,0.229,0.2299,0.2337,0.2397,0.2429,0.2497,0.2573,0.2635,0.2672,0.2754,0.2819,0.2836,0.2866,0.2873,0.2922,0.3013,0.2893,0.2894,0.2931,0.3115,0.3051,0.3062,0.2986,0.2989,0.2992,0.3102,0,0.2232,0.2298,0.2335,0.2412,0.2455,0.2509,0.2567,0.2637,0.2698,0.2778,0.2833,0.2907,0.2888,0.2923,0.2971,0.3005,0.3061,0.2987,0.305,0.3053,0.2986,0.3081,0.2845,0.2919,0.3118,0.312,0.3122,0,0.2247,0.2296,0.2367,0.2466,0.249,0.2541,0.2659,0.2713,0.2829,0.2875,0.2964,0.3003,0.3109,0.3062,0.3176,0.3125,0.3144,0.3158,0.3161,0.3108,0.3021,0.2889,0.2941,0.315,0.3148,0.3146,0.3144,0,0.2225,0.2323,0.2385,0.2418,0.2522,0.2578,0.264,0.2749,0.2811,0.2951,0.3015,0.3122,0.3182,0.3233,0.3277,0.3233,0.3384,0.3312,0.328,0.3275,0.3096,0.3069,0.341,0.341,0.341,0.3409,0.3409,0,0.2236,0.2299,0.2387,0.2425,0.2505,0.2577,0.267,0.2756,0.2872,0.2958,0.3063,0.3158,0.323,0.3316,0.3331,0.3371,0.3428,0.3337,0.3316,0.3101,0.3075,0.3287,0.3272,0.3413,0.3413,0.3412,0.3411,0,0.2219,0.2279,0.2358,0.2466,0.2495,0.2557,0.2672,0.2738,0.2861,0.2982,0.3035,0.3206,0.3313,0.3376,0.3469,0.3438,0.3481,0.3479,0.3226,0.3174,0.3325,0.331,0.3453,0.3452,0.3452,0.3451,0.345,0,0.2216,0.2246,0.2354,0.2391,0.2451,0.2535,0.2576,0.2709,0.278,0.3009,0.3063,0.3237,0.3308,0.343,0.3439,0.3464,0.3498,0.325,0.3128,0.3373,0.3338,0.3325,0.3312,0.2902,0.2897,0.2893,0.2889,0,0.2197,0.2236,0.2298,0.2369,0.2431,0.2485,0.2572,0.2612,0.277,0.2867,0.3007,0.3094,0.3249,0.3183,0.3252,0.3232,0.3221,0.3167,0.3513,0.2924,0.2861,0.2823,0.2827,0.2853,0.2856,0.2859,0.2861,0.2863,0.2176,0.2207,0.2272,0.2337,0.2402,0.2432,0.2432,0.2512,0.2579,0.2686,0.2841,0.2882,0.2967,0.2941,0.2888,0.2868,0.3066,0.2921,0.293,0.2945,0.2858,0.2797,0.2761,0.2764,0.2766,0.2769,0.2771,0,0.2132,0.2173,0.2226,0.2299,0.2325,0.2384,0.2415,0.237,0.2375,0.2499,0.2554,0.2411,0.2413,0.2498,0.2426,0.2451,0.2394,0.234,0.2238,0.2279,0.2314,0.219,0.1918,0.1915,0.1912,0.1909,0,0,0.2125,0.215,0.2168,0.2188,0.2231,0.22,0.2182,0.213,0.2159,0.2106,0.2117,0.2298,0.2434,0.213,0.2121,0.2002,0.2109,0.1929,0.2626,0.2548,0.2578,0.268,0.2541,0,0,0,0,0]},{"header":{"parameterUnit":"m.s-1","parameterCategory":2,"la1":30.2991,"la2":30.254,"lo1":-89.0895,"lo2":-89.0444,"dy":0.0017,"dx":0.0017,"nx":28,"ny":28,"refTime":"2024-12-18T09:00:00:Z","depth":"2","parameterNumber":3,"parameterNumberName":"V-component_of_CURRENTS"},"data":[0,0,0,0,0,0,0,0,0,0,0,0,0,0,0,0,0,0,0,0,0,0,0,0,0,0,0,0,0,0,0,0,0,0,0,0,0,0,0,0,0,0,0,0,0,0,0,0,0,0,0,0,0,0,0,0,0,0,-0.0084,-0.0085,0,-0.0143,-0.0143,-0.0143,-0.0219,-0.022,-0.0222,-0.0223,-0.0343,-0.0345,-0.0346,0,0,0,0,0,0,0,0,0,0,0,0,0,-0.0019,-0.002,-0.0084,-0.0085,-0.0086,-0.0143,-0.0143,-0.0143,-0.0218,-0.022,-0.0222,-0.0224,-0.0342,-0.0344,-0.0346,0,0,0,0,0,0,0,0,0,0,0,0,0,-0.0056,-0.002,-0.0084,-0.0133,-0.0139,-0.0143,-0.0143,-0.0144,-0.0218,-0.022,-0.0223,-0.0225,-0.0342,-0.0344,-0.0347,-0.0316,0,0,-0.0355,-0.0356,0,0,0,0,0,0,0,0,-0.0054,-0.0058,-0.0125,-0.013,-0.0136,-0.0179,-0.0164,-0.0206,-0.0217,-0.0184,-0.0223,-0.0226,-0.0295,-0.0301,-0.0301,-0.0321,-0.0326,-0.0355,-0.0356,-0.0358,-0.0358,0,0,0,0,0,0,0,-0.0051,-0.0055,-0.0103,-0.0126,-0.0133,-0.0147,-0.0154,-0.0172,-0.0223,-0.0187,-0.0193,-0.0205,-0.0298,-0.0298,-0.0304,-0.0328,-0.0355,-0.0357,-0.0359,-0.036,-0.0415,-0.0415,0,0,0,0,0,0,-0.005,-0.0053,-0.0102,-0.0106,-0.0104,-0.0146,-0.0154,-0.016,-0.0222,-0.0234,-0.0203,-0.0209,-0.0292,-0.0301,-0.0309,-0.0332,-0.0358,-0.036,-0.0361,-0.0415,-0.0415,-0.0415,0,0,0,0,0,0,-0.0048,-0.0053,-0.0099,-0.0084,-0.0092,-0.0145,-0.015,-0.016,-0.0178,-0.0235,-0.0248,-0.0215,-0.0294,-0.0305,-0.034,-0.0336,-0.0361,-0.0363,-0.0416,-0.0415,-0.0415,-0.0343,0,0,0,0,0,0,-0.0045,-0.0052,-0.0055,-0.0084,-0.0093,-0.0104,-0.0149,-0.0159,-0.0183,-0.0191,-0.0248,-0.0261,-0.0297,-0.0336,-0.0342,-0.034,-0.0365,-0.0416,-0.0415,-0.0415,-0.0346,-0.0341,-0.0336,0,0,0,0,0,-0.0043,-0.0041,-0.0055,-0.0061,-0.0095,-0.0104,-0.0108,-0.0152,-0.0181,-0.0179,-0.0227,-0.026,-0.034,-0.0337,-0.0345,-0.0343,-0.0416,-0.0416,-0.0415,-0.0348,-0.0342,-0.0337,0,0,0,0,0,0,-0.0022,-0.0049,-0.0065,-0.0075,-0.0088,-0.0118,-0.0123,-0.0149,-0.0181,-0.0196,-0.0252,-0.0266,-0.0296,-0.0327,-0.0323,-0.0361,-0.0386,-0.0387,-0.0332,-0.0327,-0.0322,-0.0328,-0.0368,0,0,0,0,0,-0.0015,-0.0016,-0.0044,-0.0048,-0.0054,-0.0085,-0.0097,-0.0122,-0.0155,-0.0172,-0.0215,-0.0262,-0.0295,-0.0318,-0.035,-0.0362,-0.039,-0.037,-0.0365,-0.0361,-0.0372,-0.0412,-0.0412,-0.0415,-0.0415,-0.0415,0,0,-0.0009,-0.0023,-0.0026,-0.0043,-0.0057,-0.0055,-0.0097,-0.0109,-0.0113,-0.0178,-0.0201,-0.0244,-0.0295,-0.0315,-0.0332,-0.0345,-0.0367,-0.0361,-0.0357,-0.0371,-0.0412,-0.0411,-0.0411,-0.0415,-0.0415,-0.0415,0,0,0.0018,-0.0005,0.0009,0.0002,-0.0017,-0.0036,-0.0039,-0.0069,-0.009,-0.0111,-0.0163,-0.021,-0.0252,-0.0293,-0.0318,-0.0306,-0.0339,-0.0312,-0.0294,-0.0331,-0.0331,-0.0332,-0.033,-0.0331,-0.0311,-0.0311,-0.0311,0,0.0029,0.0037,0.0012,0.0026,0.0021,-0.0025,-0.0009,-0.0028,-0.0069,-0.0079,-0.0117,-0.0196,-0.0246,-0.0275,-0.0283,-0.0296,-0.0308,-0.0306,-0.0324,-0.0325,-0.0327,-0.0326,-0.0329,-0.0308,-0.0308,-0.0308,-0.0309,0,0.0068,0.0073,0.0081,0.0083,0.0078,0.0083,0.0054,0.004,0.0001,-0.0025,-0.0067,-0.0139,-0.0191,-0.0212,-0.0252,-0.0282,-0.028,-0.0308,-0.0334,-0.0322,-0.0322,-0.0325,-0.0303,-0.0304,-0.0305,-0.0306,0,0,0.0101,0.0109,0.0111,0.0127,0.0108,0.0113,0.0107,0.0095,0.0097,0.0031,0.0025,-0.0066,-0.0115,-0.0148,-0.0201,-0.0251,-0.0273,-0.0286,-0.0289,-0.0276,-0.0322,-0.0325,-0.033,-0.0299,-0.0301,-0.0301,-0.0303,0,0.0142,0.0185,0.017,0.0204,0.0224,0.0188,0.0201,0.0181,0.0141,0.0125,0.0036,0.0003,-0.0083,-0.011,-0.0173,-0.0242,-0.0285,-0.0268,-0.0345,-0.0346,-0.0345,-0.0336,-0.0317,-0.0318,-0.0307,-0.0307,-0.0308,0,0.0187,0.021,0.0255,0.0283,0.0289,0.0294,0.0297,0.0302,0.0265,0.0237,0.0169,0.0104,0.0023,-0.0056,-0.0182,-0.0162,-0.0246,-0.031,-0.0312,-0.0351,-0.0358,-0.0338,-0.0326,-0.0314,-0.0314,-0.0313,-0.0313,0,0.0237,0.0269,0.0308,0.0314,0.0336,0.0343,0.0347,0.0329,0.0354,0.0297,0.0297,0.0191,0.0152,0.0017,-0.0133,-0.0154,-0.0258,-0.0298,-0.0376,-0.0374,-0.0395,-0.0395,-0.04,-0.04,-0.04,-0.04,-0.04,0,0.0288,0.0315,0.033,0.0353,0.0414,0.0398,0.0447,0.0436,0.0436,0.0489,0.0354,0.0365,0.0161,0.0075,-0.008,-0.0223,-0.0216,-0.0374,-0.0386,-0.0365,-0.0362,-0.0402,-0.0402,-0.04,-0.04,-0.04,-0.04,0,0.0335,0.0341,0.0392,0.0422,0.0441,0.0477,0.0528,0.0567,0.0547,0.0606,0.0595,0.0508,0.0398,0.0203,0.0014,-0.0132,-0.0286,-0.0343,-0.0286,-0.0294,-0.0385,-0.0382,-0.0423,-0.0424,-0.0424,-0.0424,-0.0425,0,0.0365,0.0399,0.0457,0.0496,0.0505,0.0559,0.0618,0.0626,0.0677,0.0711,0.0758,0.0662,0.0619,0.0343,0.0066,-0.0186,-0.0245,-0.0336,-0.0406,-0.0385,-0.0393,-0.0389,-0.0385,-0.0383,-0.0383,-0.0383,-0.0383,0,0.0431,0.0443,0.0488,0.058,0.0633,0.0715,0.0788,0.0858,0.0899,0.0943,0.1004,0.0965,0.0705,0.0449,0.009,-0.0093,-0.0301,-0.0342,-0.0337,-0.0385,-0.035,-0.0356,-0.0353,-0.0382,-0.0382,-0.0382,-0.0382,-0.0382,0.0478,0.0524,0.0589,0.0675,0.0745,0.086,0.0948,0.1031,0.1144,0.1223,0.119,0.1132,0.0837,0.0372,0.0065,-0.0272,-0.0272,-0.0404,-0.0404,-0.0404,-0.0404,-0.0372,-0.0406,-0.0406,-0.0406,-0.0406,-0.0406,0,0.055,0.0601,0.0688,0.0791,0.0886,0.091,0.1066,0.1148,0.1294,0.1339,0.1358,0.1081,0.0781,0.0438,-0.0053,-0.0347,-0.0388,-0.0444,-0.043,-0.0428,-0.0428,-0.043,-0.0438,-0.0439,-0.044,-0.044,0,0,0.0585,0.0679,0.0731,0.0899,0.0976,0.1117,0.1214,0.1324,0.1384,0.1423,0.1383,0.1284,0.088,0.0526,0.0125,-0.0154,-0.023,-0.0218,-0.0163,-0.0099,-0.0095,-0.0377,-0.0374,0,0,0,0,0]}],[{"header":{"parameterUnit":"m.s-1","parameterCategory":2,"la1":30.2991,"la2":30.254,"lo1":-89.0895,"lo2":-89.0444,"dy":0.0017,"dx":0.0017,"nx":28,"ny":28,"refTime":"2024-12-18T09:00:00:Z","depth":"4","parameterNumber":2,"parameterNumberName":"U-component_of_CURRENTS"},"data":[0,0,0,0,0,0,0,0,0,0,0,0,0,0,0,0,0,0,0,0,0,0,0,0,0,0,0,0,0,0,0,0,0,0,0,0,0,0,0,0,0,0,0,0,0,0,0,0,0,0,0,0,0,0,0,0,0,0,0.1302,0.1303,0,0.1361,0.1361,0.1362,0.1412,0.1413,0.1414,0.1414,0.1491,0.1492,0.1494,0,0,0,0,0,0,0,0,0,0,0,0,0,0.1212,0.1213,0.1302,0.1303,0.1304,0.136,0.1361,0.1362,0.1412,0.1413,0.1414,0.1415,0.1491,0.1492,0.1494,0,0,0,0,0,0,0,0,0,0,0,0,0,0.1257,0.1213,0.1302,0.1337,0.1341,0.136,0.1361,0.1362,0.1412,0.1413,0.1414,0.1415,0.149,0.1492,0.1494,0.1484,0,0,0.15,0.1501,0,0,0,0,0,0,0,0,0.1254,0.126,0.1331,0.1335,0.1339,0.1382,0.1358,0.1404,0.1412,0.1383,0.1415,0.1416,0.1457,0.1461,0.1467,0.1488,0.1491,0.15,0.1502,0.1502,0.1503,0,0,0,0,0,0,0,0.1251,0.1258,0.1323,0.1332,0.1337,0.1343,0.135,0.1366,0.1412,0.1386,0.139,0.1399,0.1459,0.1465,0.1469,0.1492,0.15,0.1502,0.1503,0.1504,0.1611,0.1613,0,0,0,0,0,0,0.1248,0.1255,0.1321,0.1325,0.1301,0.1344,0.1352,0.1366,0.1411,0.142,0.1398,0.1401,0.1461,0.1467,0.1472,0.1553,0.1502,0.1504,0.1505,0.161,0.1612,0.1613,0,0,0,0,0,0,0.1246,0.1253,0.1319,0.1292,0.1302,0.1344,0.1359,0.1366,0.1406,0.1421,0.143,0.1435,0.1462,0.1469,0.1521,0.1553,0.1505,0.1507,0.1608,0.161,0.1612,0.1658,0,0,0,0,0,0,0.1243,0.1252,0.1274,0.1292,0.1303,0.1354,0.1358,0.1367,0.1409,0.1415,0.1455,0.1461,0.1463,0.1518,0.1523,0.1555,0.1509,0.1606,0.1609,0.1612,0.1654,0.1661,0.1668,0,0,0,0,0,0.1239,0.126,0.1274,0.1283,0.1327,0.1355,0.1362,0.1393,0.141,0.1433,0.1465,0.1461,0.1541,0.1521,0.1527,0.156,0.1604,0.1608,0.1611,0.1651,0.166,0.1668,0,0,0,0,0,0,0.1233,0.1267,0.1284,0.1315,0.1345,0.1365,0.1393,0.1411,0.1453,0.1469,0.1481,0.1489,0.1546,0.1548,0.1526,0.1601,0.1573,0.1578,0.1601,0.1609,0.1616,0.1617,0.151,0,0,0,0,0,0.1241,0.1268,0.1297,0.1327,0.1345,0.1375,0.1396,0.1418,0.145,0.1471,0.1499,0.153,0.1558,0.1582,0.1604,0.1644,0.1655,0.1671,0.1678,0.1683,0.1689,0.1729,0.174,0.1625,0.1625,0.1625,0,0,0.1245,0.127,0.1286,0.1328,0.1355,0.1383,0.1391,0.1434,0.1466,0.1471,0.1535,0.1556,0.1575,0.1622,0.1647,0.1633,0.1726,0.1688,0.1692,0.1695,0.1734,0.1745,0.1755,0.1628,0.1627,0.1627,0,0,0.1261,0.1294,0.1321,0.1351,0.1399,0.1412,0.1432,0.1473,0.1507,0.1558,0.1574,0.1616,0.1661,0.168,0.1692,0.175,0.1758,0.1766,0.1804,0.1843,0.1853,0.1861,0.1902,0.1914,0.1771,0.1771,0.1771,0,0.127,0.1302,0.1334,0.1369,0.1394,0.1428,0.1459,0.1494,0.155,0.158,0.1589,0.1669,0.1684,0.1737,0.1761,0.1764,0.1794,0.1769,0.1851,0.186,0.1868,0.1908,0.192,0.1774,0.1773,0.1773,0.1773,0,0.1298,0.1333,0.1354,0.1405,0.1438,0.147,0.1516,0.1562,0.1601,0.1632,0.1708,0.1733,0.1783,0.1794,0.1796,0.1865,0.1871,0.1852,0.1827,0.1882,0.1921,0.1933,0.1777,0.1777,0.1776,0.1775,0,0,0.1289,0.1357,0.1368,0.1392,0.1458,0.1481,0.1546,0.1601,0.1653,0.171,0.1772,0.1822,0.1851,0.1868,0.1885,0.1917,0.1998,0.1919,0.192,0.1955,0.2104,0.1987,0.1988,0.2002,0.2004,0.2006,0.2113,0,0.1301,0.1349,0.139,0.1439,0.1461,0.1519,0.1578,0.1642,0.1697,0.177,0.1813,0.1882,0.1877,0.1918,0.1952,0.1993,0.2031,0.1971,0.205,0.2053,0.1937,0.1998,0.2013,0.2121,0.2124,0.2126,0.2127,0,0.1311,0.1338,0.1383,0.145,0.1471,0.1514,0.1604,0.1672,0.1777,0.1829,0.1902,0.1945,0.2026,0.2001,0.2103,0.2075,0.2099,0.2114,0.2118,0.1998,0.1957,0.2054,0.2149,0.2147,0.2146,0.2144,0.2143,0,0.1261,0.1332,0.1361,0.1385,0.1472,0.1517,0.1581,0.169,0.1758,0.1884,0.1937,0.2031,0.2092,0.2144,0.2191,0.2168,0.2284,0.2249,0.2162,0.2155,0.2207,0.2197,0.2307,0.2307,0.2306,0.2306,0.2306,0,0.1233,0.126,0.1344,0.1358,0.1418,0.1505,0.1599,0.1674,0.1798,0.188,0.1979,0.2039,0.2133,0.2204,0.2231,0.2243,0.2325,0.2182,0.2175,0.2226,0.2217,0.2217,0.2205,0.231,0.2309,0.2308,0.2308,0,0.1168,0.1221,0.126,0.1354,0.1394,0.1447,0.1596,0.1659,0.1796,0.1902,0.1949,0.2075,0.2179,0.2251,0.2339,0.2281,0.2309,0.2285,0.2359,0.2353,0.2146,0.2136,0.2205,0.2202,0.2199,0.2197,0.2195,0,0.1132,0.1149,0.1249,0.1279,0.1324,0.1425,0.1496,0.1643,0.1711,0.1907,0.1936,0.208,0.2154,0.2194,0.2275,0.2328,0.2291,0.2284,0.2186,0.215,0.2138,0.2131,0.2125,0.219,0.219,0.2189,0.2188,0,0.1069,0.112,0.1155,0.1217,0.1279,0.1356,0.1465,0.1501,0.1683,0.1804,0.1891,0.1953,0.2058,0.2127,0.218,0.2206,0.2279,0.2255,0.2259,0.2167,0.2133,0.2122,0.2119,0.2179,0.218,0.2181,0.2182,0,0.1033,0.104,0.1098,0.1147,0.1216,0.126,0.1336,0.1425,0.1517,0.172,0.1748,0.191,0.2038,0.2066,0.2122,0.214,0.2102,0.2015,0.2031,0.2043,0.1938,0.1867,0.1838,0,0,0,0,0,0.099,0.0986,0.1024,0.106,0.1124,0.1174,0.13,0.1385,0.1547,0.1564,0.1655,0.1753,0.1842,0.1924,0.1912,0.2052,0.2106,0.2028,0.2012,0.2126,0.2137,0.2028,0,0,0,0,0,0,0.095,0.0977,0.099,0.0985,0.0999,0.1064,0.1144,0.1257,0.1287,0.1454,0.1517,0.1639,0.1756,0.1831,0.1873,0.1899,0.1853,0.2131,0.2126,0.212,0.213,0.2139,0.203,0,0,0,0,0]},{"header":{"parameterUnit":"m.s-1","parameterCategory":2,"la1":30.2991,"la2":30.254,"lo1":-89.0895,"lo2":-89.0444,"dy":0.0017,"dx":0.0017,"nx":28,"ny":28,"refTime":"2024-12-18T09:00:00:Z","depth":"4","parameterNumber":3,"parameterNumberName":"V-component_of_CURRENTS"},"data":[0,0,0,0,0,0,0,0,0,0,0,0,0,0,0,0,0,0,0,0,0,0,0,0,0,0,0,0,0,0,0,0,0,0,0,0,0,0,0,0,0,0,0,0,0,0,0,0,0,0,0,0,0,0,0,0,0,0,0.0197,0.0197,0,0.0163,0.0163,0.0163,0.0142,0.0142,0.0142,0.0142,0.0087,0.0085,0.0084,0,0,0,0,0,0,0,0,0,0,0,0,0,0.0228,0.0228,0.0197,0.0197,0.0196,0.0164,0.0163,0.0163,0.0142,0.0142,0.0142,0.0142,0.0087,0.0086,0.0084,0,0,0,0,0,0,0,0,0,0,0,0,0,0.0207,0.0228,0.0198,0.0182,0.018,0.0164,0.0163,0.0163,0.0143,0.0142,0.0142,0.0142,0.0088,0.0086,0.0084,0.0077,0,0,0.0078,0.0077,0,0,0,0,0,0,0,0,0.0209,0.0206,0.0185,0.0183,0.0181,0.0156,0.0154,0.0133,0.0143,0.0158,0.0142,0.0142,0.0108,0.0104,0.01,0.0074,0.0072,0.0078,0.0076,0.0075,0.0075,0,0,0,0,0,0,0,0.021,0.0208,0.0185,0.0184,0.0182,0.0171,0.0168,0.015,0.0135,0.0156,0.0155,0.015,0.0106,0.0102,0.0098,0.0071,0.0078,0.0076,0.0075,0.0074,0.0044,0.0044,0,0,0,0,0,0,0.0214,0.0209,0.0186,0.0184,0.0194,0.017,0.0167,0.0165,0.0135,0.013,0.015,0.0149,0.0105,0.01,0.0096,0.0103,0.0075,0.0074,0.0072,0.0043,0.0044,0.0044,0,0,0,0,0,0,0.0215,0.0212,0.0187,0.0195,0.0191,0.017,0.0168,0.0164,0.0159,0.013,0.0125,0.0148,0.0105,0.0099,0.0084,0.01,0.0073,0.0071,0.0043,0.0043,0.0044,0.0106,0,0,0,0,0,0,0.0216,0.0213,0.0215,0.0195,0.019,0.0184,0.0168,0.0164,0.0156,0.0155,0.0127,0.0122,0.0104,0.0088,0.0082,0.0097,0.0069,0.0042,0.0043,0.0044,0.0103,0.0108,0.0113,0,0,0,0,0,0.0217,0.0222,0.0216,0.0213,0.0194,0.0184,0.0181,0.0166,0.0156,0.0159,0.014,0.0123,0.0088,0.0086,0.008,0.0094,0.0042,0.0043,0.0044,0.0101,0.0107,0.0112,0,0,0,0,0,0,0.0235,0.022,0.0212,0.0212,0.0201,0.0181,0.0181,0.0168,0.0155,0.0152,0.0125,0.0119,0.0112,0.0092,0.009,0.0087,0.0063,0.0063,0.0109,0.0114,0.0119,0.0134,0.0068,0,0,0,0,0,0.024,0.0241,0.0224,0.0224,0.0221,0.0201,0.0195,0.0184,0.0168,0.0162,0.0144,0.0124,0.0111,0.0104,0.0086,0.0084,0.0051,0.0089,0.0093,0.0098,0.0105,0.0073,0.0075,0.0047,0.0047,0.0047,0,0,0.0247,0.0238,0.0239,0.0228,0.0219,0.0222,0.0198,0.0192,0.0198,0.0158,0.0161,0.0138,0.0112,0.0111,0.0107,0.0098,0.0085,0.0099,0.0103,0.0108,0.0074,0.0076,0.0079,0.0047,0.0047,0.0047,0,0,0.0262,0.0255,0.0261,0.0259,0.0247,0.0236,0.0236,0.0219,0.0216,0.021,0.0188,0.0178,0.0151,0.0146,0.0137,0.0157,0.0109,0.0146,0.0186,0.0155,0.0157,0.0158,0.0107,0.0103,0.0152,0.0152,0.0152,0,0.0268,0.0279,0.0262,0.0271,0.0277,0.0247,0.0261,0.0254,0.0234,0.0238,0.0218,0.0192,0.0173,0.0179,0.0188,0.0171,0.0131,0.0169,0.0161,0.0162,0.0163,0.0109,0.0105,0.0155,0.0155,0.0154,0.0154,0,0.0289,0.0304,0.0309,0.0314,0.0315,0.0324,0.0313,0.0315,0.0302,0.0289,0.0286,0.0257,0.0244,0.0237,0.0218,0.022,0.0182,0.0169,0.0149,0.017,0.0112,0.0106,0.0159,0.0158,0.0157,0.0157,0,0,0.0289,0.0319,0.0323,0.0348,0.0344,0.0352,0.0364,0.0371,0.0385,0.0358,0.037,0.035,0.0325,0.0314,0.0288,0.0266,0.0235,0.0223,0.022,0.0176,0.0141,0.011,0.01,0.0214,0.0214,0.0213,0.0094,0,0.0313,0.0354,0.0357,0.0402,0.0427,0.0421,0.044,0.0441,0.0428,0.043,0.0399,0.0394,0.0356,0.0352,0.0323,0.0257,0.0224,0.0267,0.0124,0.012,0.0094,0.0094,0.0212,0.0089,0.0088,0.0086,0.0086,0,0.0334,0.0364,0.0415,0.0469,0.0479,0.0501,0.0533,0.0545,0.0535,0.0523,0.0502,0.0464,0.0434,0.0398,0.0291,0.0314,0.0235,0.0178,0.0172,0.0121,0.0079,0.0066,0.0074,0.0075,0.0076,0.0077,0.0077,0,0.0356,0.0408,0.0457,0.0475,0.0519,0.0552,0.0574,0.0579,0.0596,0.0582,0.0579,0.0523,0.0495,0.0398,0.0276,0.0278,0.0141,0.0129,0.0023,0.0019,0.0055,0.0055,0.0053,0.0053,0.0053,0.0053,0.0054,0,0.0385,0.0428,0.0481,0.0513,0.0581,0.0596,0.0656,0.0662,0.0669,0.0685,0.0632,0.0617,0.0493,0.0398,0.0284,0.0128,0.014,0.0027,-0.0009,0.0081,0.0085,0.0049,0.005,0.0049,0.005,0.0051,0.0052,0,0.0405,0.0437,0.0504,0.057,0.0596,0.0648,0.0715,0.0747,0.0746,0.0762,0.0759,0.0678,0.0551,0.041,0.0242,0.0139,-0.0001,-0.0059,0.0032,0.0003,-0.0109,-0.0103,-0.0189,-0.0191,-0.0193,-0.0194,-0.0196,0,0.0419,0.0454,0.0544,0.059,0.0629,0.0705,0.0753,0.0783,0.0808,0.0794,0.0794,0.069,0.0616,0.0352,0.0202,-0.0031,-0.0059,-0.0142,-0.0108,-0.0104,-0.0131,-0.0123,-0.0115,-0.0198,-0.0199,-0.0199,-0.02,0,0.0445,0.0477,0.0533,0.0622,0.0691,0.0768,0.0836,0.0856,0.0876,0.0878,0.0814,0.0685,0.0534,0.034,0.0156,-0.0005,-0.009,-0.016,-0.0157,-0.0126,-0.0116,-0.0139,-0.013,-0.0205,-0.0204,-0.0204,-0.0204,0,0.0462,0.0503,0.0571,0.065,0.0732,0.0799,0.0843,0.0868,0.0889,0.0866,0.084,0.0688,0.0603,0.0351,0.0184,0.0019,-0.002,-0.0071,-0.0073,-0.0069,0.0006,0.0039,-0.0035,0,0,0,0,0,0.0475,0.0518,0.059,0.0676,0.0753,0.0802,0.0877,0.0907,0.0926,0.0882,0.0862,0.0722,0.0469,0.0365,0.0194,0.0147,-0.0052,-0.0061,-0.0112,-0.0237,-0.0231,-0.0165,0,0,0,0,0,0,0.0485,0.0552,0.0586,0.0673,0.0728,0.0815,0.0865,0.0884,0.0861,0.0854,0.0726,0.0667,0.0428,0.0565,0.0186,0.0136,0.0077,-0.0172,-0.0177,-0.0241,-0.0235,-0.023,-0.016,0,0,0,0,0]}]]